This is the latest recevied weather packets stored in our database for station/object KB3HHA-13. If no packets are shown the sender has not sent any weather packets the latest 10 day(s).
| Time | Temp. | Humidity | Pressure | Rain* | Wind** | Luminosity | Snow |
|---|---|---|---|---|---|---|---|
| 1777839120 | 17.22° C | 31% | 1014.4 hPa | 0 mm | - | - | - |
| 1777838820 | 17.22° C | 33% | 1014.6 hPa | 0 mm | - | - | - |
| 1777838522 | 17.22° C | 33% | 1014.5 hPa | 0 mm | - | - | - |
| 1777838220 | 17.22° C | 37% | 1014.7 hPa | 0 mm | - | - | - |
| 1777837920 | 16.67° C | 34% | 1014.7 hPa | 0 mm | - | - | - |
| 1777837620 | 16.67° C | 33% | 1014.7 hPa | 0 mm | - | - | - |
| 1777837322 | 16.67° C | 32% | 1014.8 hPa | 0 mm | - | - | - |
| 1777837022 | 16.67° C | 33% | 1015.1 hPa | 0 mm | - | - | - |
| 1777836721 | 16.67° C | 36% | 1015 hPa | 0 mm | - | - | - |
| 1777836420 | 16.11° C | 34% | 1014.9 hPa | 0 mm | - | - | - |
| 1777836121 | 16.67° C | 34% | 1015.1 hPa | 0 mm | - | - | - |
| 1777835820 | 16.11° C | 35% | 1015.2 hPa | 0 mm | - | - | - |
| 1777835524 | 16.11° C | 35% | 1015.2 hPa | 0 mm | - | - | - |
| 1777835222 | 16.11° C | 34% | 1015.2 hPa | 0 mm | - | - | - |
| 1777834922 | 16.67° C | 38% | 1015.3 hPa | 0 mm | - | - | - |
| 1777834621 | 16.11° C | 38% | 1015.3 hPa | 0 mm | - | - | - |
| 1777834320 | 16.11° C | 35% | 1015.4 hPa | 0 mm | - | - | - |
| 1777834020 | 16.11° C | 36% | 1015.5 hPa | 0 mm | - | - | - |
| 1777833721 | 16.11° C | 38% | 1015.5 hPa | 0 mm | - | - | - |
| 1777833422 | 16.11° C | 39% | 1015.6 hPa | 0 mm | - | - | - |
| 1777833120 | 16.11° C | 40% | 1015.7 hPa | 0 mm | - | - | - |
| 1777832821 | 16.11° C | 38% | 1015.7 hPa | 0 mm | - | - | - |
| 1777832522 | 16.11° C | 37% | 1015.6 hPa | 0 mm | - | - | - |
| 1777832220 | 16.11° C | 39% | 1015.7 hPa | 0 mm | - | - | - |
| 1777831921 | 15.56° C | 39% | 1015.8 hPa | 0 mm | - | - | - |
* Rain latest hour (hover to see other rain measurements)
** Current wind speed in m/s (hover to see current wind gust speed)